TimePDT,TemperatureF,Dew PointF,Humidity,Sea Level PressureIn,VisibilityMPH,Wind Direction,Wind SpeedMPH,Gust SpeedMPH,PrecipitationIn,Events,Conditions,WindDirDegrees,DateUTC
12:15 AM,32.0,21.2,64,30.50,10.0,Calm,Calm,-,N/A,,Clear,0,2014-03-16 07:15:00
12:35 AM,30.2,21.2,69,30.50,10.0,Calm,Calm,-,N/A,,Clear,0,2014-03-16 07:35:00
12:55 AM,30.2,21.2,69,30.50,10.0,Calm,Calm,-,N/A,,Clear,0,2014-03-16 07:55:00
1:15 AM,28.4,21.2,74,30.50,10.0,Calm,Calm,-,N/A,,Clear,0,2014-03-16 08:15:00
1:35 AM,28.4,21.2,74,30.50,10.0,Calm,Calm,-,N/A,,Clear,0,2014-03-16 08:35:00
1:55 AM,28.4,21.2,74,30.50,10.0,Calm,Calm,-,N/A,,Clear,0,2014-03-16 08:55:00
2:15 AM,28.4,21.2,74,30.50,10.0,Calm,Calm,-,N/A,,Clear,0,2014-03-16 09:15:00
2:35 AM,28.4,21.2,74,30.50,10.0,East,3.5,-,N/A,,Clear,90,2014-03-16 09:35:00
2:55 AM,23.0,17.6,80,30.50,10.0,Calm,Calm,-,N/A,,Clear,0,2014-03-16 09:55:00
3:15 AM,24.8,21.2,86,30.49,10.0,Calm,Calm,-,N/A,,Clear,0,2014-03-16 10:15:00
3:35 AM,26.6,21.2,80,30.48,10.0,Calm,Calm,-,N/A,,Clear,0,2014-03-16 10:35:00
3:55 AM,26.6,21.2,80,30.48,10.0,Calm,Calm,-,N/A,,Clear,0,2014-03-16 10:55:00
4:15 AM,23.0,21.2,93,30.48,10.0,Calm,Calm,-,N/A,,Clear,0,2014-03-16 11:15:00
4:35 AM,24.8,21.2,86,30.48,10.0,Calm,Calm,-,N/A,,Clear,0,2014-03-16 11:35:00
4:55 AM,23.0,21.2,93,30.48,10.0,Calm,Calm,-,N/A,,Clear,0,2014-03-16 11:55:00
5:15 AM,26.6,21.2,80,30.48,10.0,Calm,Calm,-,N/A,,Clear,0,2014-03-16 12:15:00
5:35 AM,23.0,19.4,86,30.48,10.0,Calm,Calm,-,N/A,,Clear,0,2014-03-16 12:35:00
5:55 AM,26.6,21.2,80,30.48,10.0,Calm,Calm,-,N/A,,Clear,0,2014-03-16 12:55:00
6:15 AM,21.2,19.4,93,30.48,10.0,Calm,Calm,-,N/A,,Clear,0,2014-03-16 13:15:00
6:35 AM,23.0,21.2,93,30.48,10.0,Calm,Calm,-,N/A,,Clear,0,2014-03-16 13:35:00
6:55 AM,23.0,21.2,93,30.48,10.0,Calm,Calm,-,N/A,,Scattered Clouds,0,2014-03-16 13:55:00
7:50 AM,21.2,19.4,93,30.48,10.0,Calm,Calm,-,N/A,,Scattered Clouds,0,2014-03-16 14:50:00
8:45 AM,30.2,24.8,80,30.48,10.0,Calm,Calm,-,N/A,,Partly Cloudy,0,2014-03-16 15:45:00
9:45 AM,37.4,24.8,60,30.48,10.0,Calm,Calm,-,N/A,,Partly Cloudy,0,2014-03-16 16:45:00
10:50 AM,46.4,28.4,50,30.45,10.0,Calm,Calm,-,N/A,,Partly Cloudy,0,2014-03-16 17:50:00
11:45 AM,60.8,26.6,27,30.42,10.0,NW,3.5,-,N/A,,Scattered Clouds,320,2014-03-16 18:45:00
12:45 PM,64.4,19.4,18,30.41,10.0,West,5.8,-,N/A,,Mostly Cloudy,270,2014-03-16 19:45:00
1:55 PM,64.4,23.0,21,30.37,10.0,WSW,10.4,24.2,N/A,,Mostly Cloudy,250,2014-03-16 20:55:00
2:50 PM,64.4,21.2,19,30.35,10.0,SW,16.1,21.9,N/A,,Mostly Cloudy,230,2014-03-16 21:50:00
3:50 PM,62.6,21.2,20,30.34,10.0,SW,17.3,25.3,N/A,,Mostly Cloudy,220,2014-03-16 22:50:00
4:45 PM,62.6,23.0,22,30.33,10.0,WSW,17.3,25.3,N/A,,Mostly Cloudy,240,2014-03-16 23:45:00
5:45 PM,59.0,21.2,23,30.31,10.0,SSW,10.4,19.6,N/A,,Clear,210,2014-03-17 00:45:00
6:15 PM,55.4,23.0,29,30.30,10.0,SSW,8.1,-,N/A,,Clear,210,2014-03-17 01:15:00
6:35 PM,53.6,23.0,30,30.31,10.0,SW,8.1,-,N/A,,Clear,230,2014-03-17 01:35:00
6:55 PM,51.8,23.0,33,30.29,10.0,SW,5.8,-,N/A,,Clear,230,2014-03-17 01:55:00
7:15 PM,46.4,23.0,40,30.28,10.0,Calm,Calm,-,N/A,,Clear,0,2014-03-17 02:15:00
7:35 PM,44.6,23.0,43,30.28,10.0,South,3.5,-,N/A,,Clear,180,2014-03-17 02:35:00
7:55 PM,44.6,23.0,43,30.27,10.0,South,4.6,-,N/A,,Clear,180,2014-03-17 02:55:00
8:15 PM,42.8,23.0,46,30.27,10.0,SW,4.6,-,N/A,,Clear,220,2014-03-17 03:15:00
8:35 PM,42.8,23.0,46,30.26,10.0,South,5.8,-,N/A,,Clear,180,2014-03-17 03:35:00
8:55 PM,41.0,23.0,49,30.26,10.0,South,4.6,-,N/A,,Clear,190,2014-03-17 03:55:00
9:15 PM,41.0,23.0,49,30.25,10.0,SSE,5.8,-,N/A,,Clear,150,2014-03-17 04:15:00
9:35 PM,39.2,23.0,52,30.23,10.0,SSW,5.8,-,N/A,,Clear,200,2014-03-17 04:35:00
9:55 PM,39.2,23.0,52,30.23,10.0,SW,3.5,-,N/A,,Clear,220,2014-03-17 04:55:00
10:15 PM,39.2,21.2,49,30.20,10.0,Calm,Calm,-,N/A,,Clear,0,2014-03-17 05:15:00
10:35 PM,44.6,15.8,31,30.19,10.0,SW,5.8,-,N/A,,Clear,220,2014-03-17 05:35:00
11:15 PM,44.6,10.4,25,30.16,10.0,SW,16.1,21.9,N/A,,Clear,230,2014-03-17 06:15:00
11:35 PM,44.6,8.6,23,30.16,10.0,WSW,16.1,25.3,N/A,,Clear,240,2014-03-17 06:35:00
11:55 PM,44.6,6.8,21,30.16,10.0,SW,20.7,31.1,N/A,,Clear,220,2014-03-17 06:55:00